Regional Weather Roundup
Issued by NWS

Home | Current Version | Previous Version | Graphics & Text | Print | Product List | Glossary On
Versions: 1 2 3 4 5 6 7 8 9 10 11 12 13 14 15 16 17 18 19 20 21 22 23 24 25 26 27 28 29 30 31 32 33 34 35 36 37 38 39 40 41 42 43 44 45 46 47 48 49 50
645
ASUS44 KLIX 190405
RWRLA
LOUISIANA WEATHER ROUNDUP
NATIONAL WEATHER SERVICE NEW ORLEANS LA
1100 PM CDT FRI APR 18 2014

NOTE: "FAIR" INDICATES FEW OR NO CLOUDS BELOW 12,000 FEET WITH NO
      SIGNIFICANT WEATHER AND/OR OBSTRUCTIONS TO VISIBILITY.
      SKY/WX - SKY CONDITION AND SIGNIFICANT WEATHER.
      TMP - AIR TEMPERATURE.    DP   - DEWPOINT TEMPERATURE.
      RH  - RELATIVE HUMIDITY.  PRES - PRESSURE.
      HX  - HEAT INDEX.         WCI  - WIND CHILL INDEX.

*  THESE STATIONS ARE NOT NWS OR FAA STATIONS AND ARE NOT UNDER
   NWS QUALITY CONTROL.

LAZ040-048-061>063-065-066-069-190500-
SOUTHEAST LOUISIANA

CITY           SKY/WX    TMP DP  RH WIND       PRES   REMARKS
N.O. AUDUBON     N/A     64  56  76 MISG        N/A
N.O. INTL ARPT PTCLDY    63  56  78 NE9       30.14R
N.O. LAKEFRONT CLEAR     63  56  78 NE13      30.15R
N.O. DOWNTOWN* FAIR      63  52  67 N7        30.15R
SLIDELL        CLEAR     59  54  83 NE6       30.12R
BATON ROUGE    CLEAR     61  57  87 CALM      30.16R
BOOTHVILLE     PTCLDY    62  55  77 N12G20    30.11R
BELLE CHASSE   PTCLDY    61  54  77 N6        30.13R
BOGALUSA*        N/A     58  53  85 N5        30.16R
GALLIANO*      CLEAR     62  56  83 NW6       30.14R
NEW ROADS*     CLOUDY    62  60  94 NE5       30.15S
GONZALES*      FAIR      59  58  97 CALM      30.16R
HAMMOND*       CLEAR     59  54  82 N3        30.17R
HOUMA*           N/A     60  55  83 CALM      30.15R
PORT FOURCHON* CLEAR     64  57  77 N10       30.15R

$$

LAZ041-044-053-054-190500-
SOUTHWEST LOUISIANA

CITY           SKY/WX    TMP DP  RH WIND       PRES   REMARKS
LAKE CHARLES   CLEAR     63  57  81 N6        30.13F
LAFAYETTE      PTCLDY    64  58  80 N5        30.14S
PATTERSON      CLEAR     63  57  82 E7        30.17S
SALT POINT       N/A     66  61  84 CALM      30.12S
NEW IBERIA     PTCLDY    63  58  83 NE5       30.14S
CHENAULT AIRPK CLEAR     62  57  84 N3        30.15S

$$

LAZ027-028-190500-
CENTRAL LOUISIANA

CITY           SKY/WX    TMP DP  RH WIND       PRES   REMARKS
FORT POLK      CLEAR     60  56  86 N5        30.15S FOG
ALEXANDRIA INT PTCLDY    62  57  83 N6        30.14F
ALEXANDRIA     PTCLDY    62  58  86 CALM      30.16S

$$

LAZ001-002-190500-
NORTHWEST LOUISIANA

CITY           SKY/WX    TMP DP  RH WIND       PRES   REMARKS
SHREVEPORT     PTCLDY    60  53  77 CALM      30.17S
BARKSDALE AFB  MOCLDY    63  53  69 E1        30.17S
DTN SHREVEPORT MOCLDY    59  53  80 CALM      30.17F

$$

LAZ014-016-190500-
NORTHEAST LOUISIANA

CITY           SKY/WX    TMP DP  RH WIND       PRES   REMARKS
MONROE         CLEAR     57  54  89 CALM      30.19R
TALLULAH       CLEAR     62  54  74 NE6       30.18R

$$




USA.gov is the U.S. government's official web portal to all federal, state and local government web resources and services.